EA5SW-13 Weather Reports


Display with metric or nautical units.
time (UTC)temp
F
wind
direction
speed
MPH
gust
MPH
rain 1hr
in
rain 24hr
in
rain mn
in
humidity
%
barometer
mb
20260504194102 67 0.0 1.0 0.00 0.00 0.00 79
20260504193057 67 0.0 1.0 0.00 0.00 0.00 78
20260504192100 67 0.0 1.0 0.00 0.00 0.00 77
20260504191037 68 0.0 1.0 0.00 0.00 0.00 75
20260504190549 68 180 0.0 2.0 0.00 0.00 0.00 74
20260504185038 69 0.0 1.0 0.00 0.00 0.00 72
20260504184100 70 0.0 1.0 0.00 0.00 0.00 71
20260504183321 71 0.0 0.0 0.00 0.00 0.00 71
20260504182208 71 0.0 1.0 0.00 0.00 0.00 70
20260504181037 72 0.0 2.0 0.00 0.00 0.00 67
20260504180237 75 0.0 1.0 0.00 0.00 0.00 60
20260504175037 77 0.0 1.0 0.00 0.00 0.00 57
20260504174101 77 0.0 1.0 0.00 0.00 0.00 59
20260504173036 75 0.0 1.0 0.00 0.00 0.00 60
20260504172101 75 0.0 1.0 0.00 0.00 0.00 60
20260504171037 75 0.0 1.0 0.00 0.00 0.00 59
20260504170549 75 0.0 1.0 0.00 0.00 0.00 57
20260504151057 82 0 0.0 2.0 0.00 0.00 0.00 50
20260504150549 82 0.0 1.0 0.00 0.00 0.00 50
20260504141037 83 270 0.0 2.0 0.00 0.00 0.00 46
20260504140609 82 0.0 1.0 0.00 0.00 0.00 48
20260504130549 82 0.0 1.0 0.00 0.00 0.00 50
20260504110637 69 0.0 0.0 0.00 0.00 0.00 71
20260504081702 68 0.0 0.0 0.00 0.00 0.00 72
20260504080638 68 0.0 1.0 0.00 0.00 0.00 72
20260504050639 64 0.0 0.0 0.00 0.00 0.00 80
20260504045702 64 0.0 0.0 0.00 0.00 0.00 80
20260504044638 64 0.0 0.0 0.00 0.00 0.00 80
20260504043702 64 0.0 0.0 0.00 0.00 0.00 79
20260504042638 64 0.0 0.0 0.00 0.00 0.00 79
20260504041702 64 0.0 0.0 0.00 0.00 0.00 78
20260504040638 64 0.0 0.0 0.00 0.00 0.00 78
20260504035302 64 0.0 0.0 0.00 0.00 0.00 78
20260504034258 64 0.0 0.0 0.00 0.00 0.00 78
20260504033301 64 0.0 0.0 0.00 0.00 0.00 77
20260504032238 65 0.0 0.0 0.00 0.00 0.00 77
20260504031302 65 0.0 0.0 0.00 0.00 0.00 77
20260504030238 65 0.0 0.0 0.00 0.00 0.00 77
20260504025702 65 0.0 0.0 0.00 0.00 0.00 77
20260504024638 65 0.0 0.0 0.00 0.00 0.00 77
20260504023702 65 0.0 0.0 0.00 0.00 0.00 77
20260504022638 65 0.0 0.0 0.00 0.00 0.00 77
20260504021701 65 0.0 0.0 0.00 0.00 0.00 77
20260504020638 0 0.0 0.0 0.00 0.00 0.00
20260504015701 65 0.0 0.0 0.00 0.00 0.00 77
20260504014638 65 0.0 0.0 0.00 0.00 0.00 77
20260504013703 65 0.0 1.0 0.00 0.00 0.00 77
20260504012657 65 0.0 1.0 0.00 0.00 0.00 78
20260504011702 65 0.0 0.0 0.00 0.00 0.00 79
20260504010638 65 0.0 0.0 0.00 0.00 0.00 78
20260504005702 65 0.0 0.0 0.00 0.00 0.00 78
20260504004638 64 0.0 0.0 0.00 0.00 0.00 78
20260504003702 64 0.0 0.0 0.00 0.00 0.00 77
20260504002638 64 0.0 0.0 0.00 0.00 0.00 77
20260504001823 65 0.0 0.0 0.00 0.00 0.00 77
20260504000637 0 0.0 0.0 0.00 0.00 0.00
20260503235703 65 0.0 0.0 0.00 0.00 0.00 77
20260503234638 65 0.0 0.0 0.00 0.00 0.00 77
20260503233722 65 0.0 0.0 0.00 0.00 0.00 77
20260503232638 65 0.0 0.0 0.00 0.00 0.00 77
20260503231722 65 0.0 0.0 0.00 0.00 0.00 77
20260503230638 65 0.0 0.0 0.00 0.00 0.00 77
20260503225702 65 0.0 0.0 0.00 0.00 0.00 77
20260503224638 65 0.0 0.0 0.00 0.00 0.00 78
20260503223702 65 0.0 0.0 0.00 0.00 0.00 78
20260503222638 65 0.0 0.0 0.00 0.00 0.00 78
20260503221722 65 0.0 0.0 0.00 0.00 0.00 79
20260503220638 0 0.0 0.0 0.00 0.00 0.00
20260503215742 65 0.0 0.0 0.00 0.00 0.00 78
20260503214639 65 0.0 0.0 0.00 0.00 0.00 78
20260503213705 65 0.0 0.0 0.00 0.00 0.00 78
20260503212638 65 0.0 0.0 0.00 0.00 0.00 78
20260503211703 65 0.0 0.0 0.00 0.00 0.00 78
20260503210638 65 0.0 0.0 0.00 0.00 0.00 79
20260503205703 65 0.0 0.0 0.00 0.00 0.00 79
20260503204726 65 0.0 0.0 0.00 0.00 0.00 78
20260503203753 65 0.0 0.0 0.00 0.00 0.00 78
20260503202639 65 0.0 0.0 0.00 0.00 0.00 78
20260503201703 65 0.0 0.0 0.00 0.00 0.00 78
20260503200638 0 0.0 0.0 0.00 0.00 0.00
20260503195702 66 0.0 0.0 0.00 0.00 0.00 77